Time,TemperatureF,DewpointF,PressureIn,WindDirection,WindDirectionDegrees,WindSpeedMPH,WindSpeedGustMPH,Humidity,HourlyPrecipIn,Conditions,Clouds,dailyrainin,SoftwareType,DateUTC
2013-02-20 00:02:00,37.9,36.9,29.64,SSW,202,2.0,3.0,96,0.00,,,0.17,meteohub,2013-02-20 05:02:00,
2013-02-20 00:07:00,37.9,36.9,29.64,South,180,1.0,3.0,96,0.00,,,0.17,meteohub,2013-02-20 05:07:00,
2013-02-20 00:12:00,37.8,36.7,29.64,SSE,158,2.0,3.0,96,0.00,,,0.17,meteohub,2013-02-20 05:12:00,
2013-02-20 00:17:00,37.8,36.7,29.64,SSE,158,2.0,3.0,96,0.00,,,0.17,meteohub,2013-02-20 05:17:00,
2013-02-20 00:22:00,37.6,36.5,29.64,SE,135,1.0,3.0,96,0.00,,,0.17,meteohub,2013-02-20 05:22:00,
2013-02-20 00:27:00,37.6,36.5,29.64,South,180,3.0,3.0,96,0.00,,,0.17,meteohub,2013-02-20 05:27:00,
2013-02-20 00:32:00,37.6,36.5,29.64,ENE,68,0.0,4.0,96,0.00,,,0.17,meteohub,2013-02-20 05:32:00,
2013-02-20 00:37:00,37.4,36.3,29.64,SSE,158,2.0,4.0,96,0.00,,,0.17,meteohub,2013-02-20 05:37:00,
2013-02-20 00:42:00,37.0,36.0,29.64,ENE,68,2.0,4.0,96,0.00,,,0.17,meteohub,2013-02-20 05:42:00,
2013-02-20 00:47:00,36.9,35.8,29.61,SSE,158,3.0,3.0,96,0.00,,,0.17,meteohub,2013-02-20 05:47:00,
2013-02-20 00:52:00,36.9,36.1,29.61,South,180,1.0,4.0,97,0.00,,,0.17,meteohub,2013-02-20 05:52:00,
2013-02-20 00:57:00,36.7,36.0,29.61,South,180,0.0,4.0,97,0.00,,,0.17,meteohub,2013-02-20 05:57:00,
2013-02-20 01:02:00,36.7,36.0,29.61,SSW,202,2.0,4.0,97,0.00,,,0.17,meteohub,2013-02-20 06:02:00,
2013-02-20 01:07:00,36.5,35.8,29.61,South,180,2.0,3.0,97,0.00,,,0.17,meteohub,2013-02-20 06:07:00,
2013-02-20 01:12:00,36.5,35.8,29.61,SSW,202,1.0,2.0,97,0.00,,,0.17,meteohub,2013-02-20 06:12:00,
2013-02-20 01:17:00,36.3,35.6,29.64,South,180,0.0,2.0,97,0.00,,,0.17,meteohub,2013-02-20 06:17:00,
2013-02-20 01:22:00,36.3,35.6,29.64,SSW,202,1.0,2.0,97,0.00,,,0.17,meteohub,2013-02-20 06:22:00,
2013-02-20 01:27:00,36.3,35.6,29.64,South,180,2.0,5.0,97,0.00,,,0.17,meteohub,2013-02-20 06:27:00,
2013-02-20 01:32:00,36.5,35.8,29.64,SW,225,2.0,5.0,97,0.00,,,0.17,meteohub,2013-02-20 06:32:00,
2013-02-20 01:37:00,36.5,35.8,29.64,WNW,292,1.0,4.0,97,0.00,,,0.17,meteohub,2013-02-20 06:37:00,
2013-02-20 01:42:00,36.5,35.8,29.64,South,180,2.0,3.0,97,0.00,,,0.17,meteohub,2013-02-20 06:42:00,
2013-02-20 01:47:00,36.5,35.8,29.67,South,180,0.0,5.0,97,0.00,,,0.17,meteohub,2013-02-20 06:47:00,
2013-02-20 01:52:00,36.5,35.8,29.67,South,180,2.0,5.0,97,0.00,,,0.17,meteohub,2013-02-20 06:52:00,
2013-02-20 01:57:00,36.7,36.0,29.67,SSE,158,3.0,5.0,97,0.00,,,0.17,meteohub,2013-02-20 06:57:00,
2013-02-20 02:02:00,36.7,36.0,29.64,SSE,158,1.0,4.0,97,0.00,,,0.17,meteohub,2013-02-20 07:02:00,
2013-02-20 02:07:00,36.7,36.0,29.64,South,180,1.0,4.0,97,0.00,,,0.17,meteohub,2013-02-20 07:07:00,
2013-02-20 02:12:00,36.5,35.8,29.64,South,180,3.0,4.0,97,0.00,,,0.17,meteohub,2013-02-20 07:12:00,
2013-02-20 02:17:00,36.3,35.6,29.64,SW,225,3.0,4.0,97,0.00,,,0.17,meteohub,2013-02-20 07:17:00,
2013-02-20 02:22:00,36.3,35.6,29.64,South,180,0.0,3.0,97,0.00,,,0.17,meteohub,2013-02-20 07:22:00,
2013-02-20 02:27:00,36.1,35.4,29.64,SSW,202,1.0,3.0,97,0.00,,,0.17,meteohub,2013-02-20 07:27:00,
2013-02-20 02:32:00,36.1,35.4,29.64,South,180,0.0,4.0,97,0.00,,,0.17,meteohub,2013-02-20 07:32:00,
2013-02-20 02:37:00,36.1,35.4,29.64,South,180,0.0,4.0,97,0.00,,,0.17,meteohub,2013-02-20 07:37:00,
2013-02-20 02:42:00,36.0,35.2,29.64,SSW,202,0.0,4.0,97,0.00,,,0.17,meteohub,2013-02-20 07:42:00,
2013-02-20 02:47:00,35.8,35.1,29.64,South,180,0.0,3.0,97,0.00,,,0.17,meteohub,2013-02-20 07:47:00,
2013-02-20 02:52:00,35.8,35.1,29.64,SSW,202,3.0,3.0,97,0.00,,,0.17,meteohub,2013-02-20 07:52:00,
2013-02-20 02:57:00,36.0,35.2,29.64,WSW,248,4.0,5.0,97,0.00,,,0.17,meteohub,2013-02-20 07:57:00,
2013-02-20 03:07:00,34.9,34.2,29.64,WSW,248,4.0,11.0,97,0.00,,,0.17,meteohub,2013-02-20 08:07:00,
2013-02-20 03:12:00,34.5,33.8,29.64,NNW,338,3.0,11.0,97,0.00,,,0.17,meteohub,2013-02-20 08:12:00,
2013-02-20 03:17:00,34.3,33.3,29.67,North,0,0.0,6.0,96,0.00,,,0.17,meteohub,2013-02-20 08:17:00,
2013-02-20 03:22:00,34.2,33.1,29.67,WSW,248,1.0,6.0,96,0.00,,,0.17,meteohub,2013-02-20 08:22:00,
2013-02-20 03:27:00,34.0,32.9,29.67,SW,225,0.0,5.0,96,0.00,,,0.17,meteohub,2013-02-20 08:27:00,
2013-02-20 03:32:00,34.0,32.9,29.64,NNW,338,3.0,6.0,96,0.00,,,0.17,meteohub,2013-02-20 08:32:00,
2013-02-20 03:37:00,33.8,32.5,29.64,WSW,248,4.0,6.0,95,0.00,,,0.17,meteohub,2013-02-20 08:37:00,
2013-02-20 03:42:00,33.6,32.4,29.64,WNW,292,5.0,8.0,95,0.00,,,0.17,meteohub,2013-02-20 08:42:00,
2013-02-20 03:47:00,33.4,31.8,29.64,WSW,248,5.0,8.0,94,0.00,,,0.17,meteohub,2013-02-20 08:47:00,
2013-02-20 03:52:00,33.3,31.5,29.64,WSW,248,5.0,8.0,93,0.00,,,0.17,meteohub,2013-02-20 08:52:00,
2013-02-20 03:57:00,33.3,31.3,29.64,ESE,112,5.0,6.0,92,0.00,,,0.17,meteohub,2013-02-20 08:57:00,
2013-02-20 04:02:00,33.3,30.9,29.64,WSW,248,6.0,6.0,91,0.00,,,0.17,meteohub,2013-02-20 09:02:00,
2013-02-20 04:07:00,33.3,30.7,29.64,WSW,248,4.0,6.0,90,0.00,,,0.17,meteohub,2013-02-20 09:07:00,
2013-02-20 04:12:00,33.1,30.2,29.64,WSW,248,4.0,6.0,89,0.00,,,0.17,meteohub,2013-02-20 09:12:00,
2013-02-20 04:17:00,33.1,30.2,29.64,WNW,292,3.0,6.0,89,0.00,,,0.17,meteohub,2013-02-20 09:17:00,
2013-02-20 04:22:00,32.9,29.5,29.64,NNW,338,4.0,6.0,87,0.00,,,0.17,meteohub,2013-02-20 09:22:00,
2013-02-20 04:27:00,32.9,29.1,29.64,NNW,338,3.0,7.0,86,0.00,,,0.17,meteohub,2013-02-20 09:27:00,
2013-02-20 04:32:00,32.7,28.2,29.64,NNW,338,2.0,7.0,83,0.00,,,0.17,meteohub,2013-02-20 09:32:00,
2013-02-20 04:37:00,32.7,27.3,29.64,NNE,22,3.0,10.0,80,0.00,,,0.17,meteohub,2013-02-20 09:37:00,
2013-02-20 04:42:00,32.7,26.6,29.64,NNE,22,3.0,10.0,78,0.00,,,0.17,meteohub,2013-02-20 09:42:00,
2013-02-20 04:47:00,32.7,26.6,29.64,NNW,338,3.0,10.0,78,0.00,,,0.17,meteohub,2013-02-20 09:47:00,
2013-02-20 04:52:00,32.7,26.4,29.64,NNW,338,7.0,9.0,77,0.00,,,0.17,meteohub,2013-02-20 09:52:00,
2013-02-20 04:57:00,32.7,25.7,29.64,NNW,338,3.0,9.0,75,0.00,,,0.17,meteohub,2013-02-20 09:57:00,
2013-02-20 05:02:00,32.7,25.7,29.64,East,90,3.0,9.0,75,0.00,,,0.17,meteohub,2013-02-20 10:02:00,
2013-02-20 05:07:00,32.7,25.3,29.64,NW,315,2.0,9.0,74,0.00,,,0.17,meteohub,2013-02-20 10:07:00,
2013-02-20 05:12:00,32.5,24.8,29.64,North,0,4.0,9.0,73,0.00,,,0.17,meteohub,2013-02-20 10:12:00,
2013-02-20 05:17:00,32.5,24.8,29.67,South,180,3.0,7.0,73,0.00,,,0.17,meteohub,2013-02-20 10:17:00,
2013-02-20 05:22:00,32.4,24.4,29.67,NW,315,1.0,8.0,72,0.00,,,0.17,meteohub,2013-02-20 10:22:00,
2013-02-20 05:27:00,32.2,22.8,29.67,NNW,338,3.0,8.0,68,0.00,,,0.17,meteohub,2013-02-20 10:27:00,
2013-02-20 05:32:00,32.2,22.5,29.67,WNW,292,2.0,7.0,67,0.00,,,0.17,meteohub,2013-02-20 10:32:00,
2013-02-20 05:37:00,32.2,23.2,29.67,SSE,158,8.0,8.0,69,0.00,,,0.17,meteohub,2013-02-20 10:37:00,
2013-02-20 05:42:00,32.2,23.2,29.67,WSW,248,2.0,8.0,69,0.00,,,0.17,meteohub,2013-02-20 10:42:00,
2013-02-20 05:47:00,32.0,22.3,29.70,NW,315,2.0,8.0,67,0.00,,,0.17,meteohub,2013-02-20 10:47:00,
2013-02-20 05:52:00,32.0,21.9,29.70,NNW,338,1.0,8.0,66,0.00,,,0.17,meteohub,2013-02-20 10:52:00,
2013-02-20 05:57:00,32.0,22.3,29.70,NNW,338,3.0,5.0,67,0.00,,,0.17,meteohub,2013-02-20 10:57:00,
2013-02-20 06:02:00,31.8,21.0,29.67,West,270,0.0,6.0,64,0.00,,,0.17,meteohub,2013-02-20 11:02:00,
2013-02-20 06:07:00,31.6,21.2,29.67,WNW,292,4.0,6.0,65,0.00,,,0.17,meteohub,2013-02-20 11:07:00,
2013-02-20 06:12:00,31.6,20.8,29.67,NNE,22,3.0,10.0,64,0.00,,,0.17,meteohub,2013-02-20 11:12:00,
2013-02-20 06:17:00,31.5,21.0,29.70,West,270,6.0,10.0,65,0.00,,,0.17,meteohub,2013-02-20 11:17:00,
2013-02-20 06:22:00,31.1,19.9,29.70,WSW,248,5.0,10.0,63,0.00,,,0.17,meteohub,2013-02-20 11:22:00,
2013-02-20 06:27:00,31.1,20.3,29.70,SW,225,3.0,9.0,64,0.00,,,0.17,meteohub,2013-02-20 11:27:00,
2013-02-20 06:32:00,30.7,18.5,29.70,WNW,292,5.0,9.0,60,0.00,,,0.17,meteohub,2013-02-20 11:32:00,
2013-02-20 06:37:00,30.7,18.5,29.70,WNW,292,4.0,8.0,60,0.00,,,0.17,meteohub,2013-02-20 11:37:00,
2013-02-20 06:42:00,30.6,18.3,29.70,WSW,248,3.0,8.0,60,0.00,,,0.17,meteohub,2013-02-20 11:42:00,
2013-02-20 06:47:00,30.6,18.7,29.70,WNW,292,4.0,6.0,61,0.00,,,0.17,meteohub,2013-02-20 11:47:00,
2013-02-20 06:52:00,30.4,17.4,29.70,NNW,338,4.0,10.0,58,0.00,,,0.17,meteohub,2013-02-20 11:52:00,
2013-02-20 06:57:00,30.4,17.4,29.70,WNW,292,3.0,10.0,58,0.00,,,0.17,meteohub,2013-02-20 11:57:00,
2013-02-20 07:02:00,30.2,17.6,29.70,WNW,292,6.0,10.0,59,0.00,,,0.17,meteohub,2013-02-20 12:02:00,
2013-02-20 07:07:00,30.0,17.4,29.70,WNW,292,1.0,9.0,59,0.00,,,0.17,meteohub,2013-02-20 12:07:00,
2013-02-20 07:12:00,30.0,17.8,29.70,WSW,248,3.0,6.0,60,0.00,,,0.17,meteohub,2013-02-20 12:12:00,
2013-02-20 07:17:00,29.7,17.4,29.70,SSE,158,4.0,6.0,60,0.00,,,0.17,meteohub,2013-02-20 12:17:00,
2013-02-20 07:22:00,29.7,16.7,29.70,West,270,4.0,9.0,58,0.00,,,0.17,meteohub,2013-02-20 12:22:00,
2013-02-20 07:27:00,29.7,16.7,29.70,WNW,292,4.0,9.0,58,0.00,,,0.17,meteohub,2013-02-20 12:27:00,
2013-02-20 07:32:00,29.5,15.8,29.73,NNW,338,3.0,9.0,56,0.00,,,0.17,meteohub,2013-02-20 12:32:00,
2013-02-20 07:37:00,29.5,16.5,29.73,WSW,248,6.0,7.0,58,0.00,,,0.17,meteohub,2013-02-20 12:37:00,
2013-02-20 07:42:00,29.5,16.5,29.73,West,270,2.0,9.0,58,0.00,,,0.17,meteohub,2013-02-20 12:42:00,
2013-02-20 07:47:00,29.5,16.2,29.73,West,270,6.0,9.0,57,0.00,,,0.17,meteohub,2013-02-20 12:47:00,
2013-02-20 07:52:00,29.7,16.3,29.73,SW,225,8.0,9.0,57,0.00,,,0.17,meteohub,2013-02-20 12:52:00,
2013-02-20 07:57:00,29.7,16.3,29.73,NW,315,4.0,11.0,57,0.00,,,0.17,meteohub,2013-02-20 12:57:00,
2013-02-20 08:02:00,29.8,16.2,29.73,West,270,3.0,11.0,56,0.00,,,0.17,meteohub,2013-02-20 13:02:00,
2013-02-20 08:07:00,30.0,16.7,29.73,WSW,248,8.0,11.0,57,0.00,,,0.17,meteohub,2013-02-20 13:07:00,
2013-02-20 08:12:00,30.2,16.9,29.73,West,270,6.0,8.0,57,0.00,,,0.17,meteohub,2013-02-20 13:12:00,
2013-02-20 08:17:00,30.2,16.3,29.73,WSW,248,2.0,8.0,56,0.00,,,0.17,meteohub,2013-02-20 13:17:00,
2013-02-20 08:22:00,30.4,16.5,29.73,WSW,248,3.0,8.0,56,0.00,,,0.17,meteohub,2013-02-20 13:22:00,
2013-02-20 08:27:00,30.9,16.7,29.73,NNW,338,3.0,11.0,55,0.00,,,0.17,meteohub,2013-02-20 13:27:00,
2013-02-20 08:32:00,31.1,16.9,29.73,SW,225,4.0,11.0,55,0.00,,,0.17,meteohub,2013-02-20 13:32:00,
2013-02-20 08:37:00,31.1,16.3,29.73,WNW,292,5.0,11.0,54,0.00,,,0.17,meteohub,2013-02-20 13:37:00,
2013-02-20 08:42:00,31.3,16.5,29.73,West,270,10.0,10.0,54,0.00,,,0.17,meteohub,2013-02-20 13:42:00,
2013-02-20 08:47:00,31.8,17.1,29.73,WSW,248,4.0,10.0,54,0.00,,,0.17,meteohub,2013-02-20 13:47:00,
2013-02-20 08:52:00,32.0,16.9,29.73,WNW,292,6.0,10.0,53,0.00,,,0.17,meteohub,2013-02-20 13:52:00,
2013-02-20 08:57:00,32.5,17.4,29.73,WSW,248,6.0,10.0,53,0.00,,,0.17,meteohub,2013-02-20 13:57:00,
2013-02-20 09:02:00,32.4,16.3,29.73,NW,315,4.0,11.0,51,0.00,,,0.17,meteohub,2013-02-20 14:02:00,
2013-02-20 09:07:00,32.2,16.2,29.73,NNW,338,5.0,11.0,51,0.00,,,0.17,meteohub,2013-02-20 14:07:00,
2013-02-20 09:12:00,32.2,16.2,29.73,NW,315,6.0,9.0,51,0.00,,,0.17,meteohub,2013-02-20 14:12:00,
2013-02-20 09:17:00,32.2,16.2,29.73,North,0,6.0,9.0,51,0.00,,,0.17,meteohub,2013-02-20 14:17:00,
2013-02-20 09:22:00,32.4,16.3,29.73,SW,225,11.0,11.0,51,0.00,,,0.17,meteohub,2013-02-20 14:22:00,
2013-02-20 09:27:00,32.7,17.1,29.73,WSW,248,7.0,11.0,52,0.00,,,0.17,meteohub,2013-02-20 14:27:00,
2013-02-20 09:32:00,33.3,17.6,29.73,WNW,292,2.0,11.0,52,0.00,,,0.17,meteohub,2013-02-20 14:32:00,
2013-02-20 09:37:00,33.8,18.1,29.73,WSW,248,3.0,11.0,52,0.00,,,0.17,meteohub,2013-02-20 14:37:00,
2013-02-20 09:42:00,34.2,18.0,29.73,West,270,4.0,9.0,51,0.00,,,0.17,meteohub,2013-02-20 14:42:00,
2013-02-20 09:47:00,34.5,18.3,29.73,NW,315,4.0,6.0,51,0.00,,,0.17,meteohub,2013-02-20 14:47:00,
2013-02-20 09:52:00,34.7,18.5,29.73,SW,225,6.0,10.0,51,0.00,,,0.17,meteohub,2013-02-20 14:52:00,
2013-02-20 09:57:00,34.9,18.7,29.73,WSW,248,5.0,10.0,51,0.00,,,0.17,meteohub,2013-02-20 14:57:00,
2013-02-20 10:02:00,35.1,18.3,29.73,SW,225,4.0,9.0,50,0.00,,,0.17,meteohub,2013-02-20 15:02:00,
2013-02-20 10:07:00,35.4,18.7,29.73,West,270,4.0,10.0,50,0.00,,,0.17,meteohub,2013-02-20 15:07:00,
2013-02-20 10:12:00,35.2,18.5,29.73,WSW,248,6.0,10.0,50,0.00,,,0.17,meteohub,2013-02-20 15:12:00,
2013-02-20 10:17:00,34.5,17.8,29.73,WNW,292,6.0,10.0,50,0.00,,,0.17,meteohub,2013-02-20 15:17:00,
2013-02-20 10:22:00,34.2,17.6,29.73,WSW,248,3.0,10.0,50,0.00,,,0.17,meteohub,2013-02-20 15:22:00,
2013-02-20 10:27:00,33.8,16.7,29.73,WSW,248,4.0,10.0,49,0.00,,,0.17,meteohub,2013-02-20 15:27:00,
2013-02-20 10:32:00,34.0,16.3,29.73,NNW,338,4.0,11.0,48,0.00,,,0.17,meteohub,2013-02-20 15:32:00,
2013-02-20 10:37:00,34.0,16.9,29.73,WNW,292,2.0,11.0,49,0.00,,,0.17,meteohub,2013-02-20 15:37:00,
2013-02-20 10:42:00,34.0,16.9,29.73,SE,135,4.0,9.0,49,0.00,,,0.17,meteohub,2013-02-20 15:42:00,
2013-02-20 10:47:00,34.0,16.9,29.73,WSW,248,9.0,10.0,49,0.00,,,0.17,meteohub,2013-02-20 15:47:00,
2013-02-20 10:52:00,34.0,16.9,29.73,West,270,6.0,11.0,49,0.00,,,0.17,meteohub,2013-02-20 15:52:00,
2013-02-20 10:57:00,34.0,16.9,29.73,WSW,248,4.0,11.0,49,0.00,,,0.17,meteohub,2013-02-20 15:57:00,
2013-02-20 11:02:00,34.3,17.2,29.73,WSW,248,3.0,11.0,49,0.00,,,0.17,meteohub,2013-02-20 16:02:00,
2013-02-20 11:07:00,34.9,17.2,29.73,WNW,292,3.0,9.0,48,0.00,,,0.17,meteohub,2013-02-20 16:07:00,
2013-02-20 11:12:00,35.4,16.7,29.73,NW,315,8.0,9.0,46,0.00,,,0.17,meteohub,2013-02-20 16:12:00,
2013-02-20 11:17:00,34.7,14.5,29.73,NNW,338,6.0,10.0,43,0.00,,,0.17,meteohub,2013-02-20 16:17:00,
2013-02-20 11:22:00,34.0,14.4,29.73,North,0,6.0,10.0,44,0.00,,,0.17,meteohub,2013-02-20 16:22:00,
2013-02-20 11:27:00,33.3,14.4,29.73,SW,225,5.0,10.0,45,0.00,,,0.17,meteohub,2013-02-20 16:27:00,
2013-02-20 11:32:00,33.3,14.7,29.76,South,180,9.0,9.0,46,0.00,,,0.17,meteohub,2013-02-20 16:32:00,
2013-02-20 11:37:00,33.6,15.1,29.76,WNW,292,3.0,9.0,46,0.00,,,0.17,meteohub,2013-02-20 16:37:00,
2013-02-20 11:42:00,33.8,14.7,29.76,SW,225,4.0,9.0,45,0.00,,,0.17,meteohub,2013-02-20 16:42:00,
2013-02-20 11:47:00,34.2,15.1,29.76,NNE,22,4.0,9.0,45,0.00,,,0.17,meteohub,2013-02-20 16:47:00,
2013-02-20 11:52:00,34.5,16.0,29.76,West,270,2.0,9.0,46,0.00,,,0.17,meteohub,2013-02-20 16:52:00,
2013-02-20 11:57:00,34.9,15.3,29.76,NNW,338,5.0,11.0,44,0.00,,,0.17,meteohub,2013-02-20 16:57:00,
2013-02-20 12:02:00,36.0,16.2,29.73,NNW,338,6.0,11.0,44,0.00,,,0.17,meteohub,2013-02-20 17:02:00,
2013-02-20 12:07:00,36.1,15.8,29.73,WSW,248,6.0,11.0,43,0.00,,,0.17,meteohub,2013-02-20 17:07:00,
2013-02-20 12:12:00,35.8,15.1,29.73,WNW,292,3.0,10.0,42,0.00,,,0.17,meteohub,2013-02-20 17:12:00,
2013-02-20 12:17:00,35.4,15.8,29.73,NE,45,4.0,10.0,44,0.00,,,0.17,meteohub,2013-02-20 17:17:00,
2013-02-20 12:22:00,35.1,14.9,29.73,West,270,4.0,12.0,43,0.00,,,0.17,meteohub,2013-02-20 17:22:00,
2013-02-20 12:27:00,35.6,15.4,29.73,West,270,3.0,12.0,43,0.00,,,0.17,meteohub,2013-02-20 17:27:00,
2013-02-20 12:32:00,35.6,14.9,29.73,WNW,292,4.0,12.0,42,0.00,,,0.17,meteohub,2013-02-20 17:32:00,
2013-02-20 12:37:00,35.4,15.3,29.73,South,180,6.0,9.0,43,0.00,,,0.17,meteohub,2013-02-20 17:37:00,
2013-02-20 12:42:00,35.8,15.1,29.73,NW,315,3.0,11.0,42,0.00,,,0.17,meteohub,2013-02-20 17:42:00,
2013-02-20 12:47:00,35.6,14.9,29.73,WNW,292,3.0,11.0,42,0.00,,,0.17,meteohub,2013-02-20 17:47:00,
2013-02-20 12:52:00,35.4,14.7,29.73,SSE,158,6.0,11.0,42,0.00,,,0.17,meteohub,2013-02-20 17:52:00,
2013-02-20 12:57:00,35.4,14.7,29.73,WSW,248,5.0,9.0,42,0.00,,,0.17,meteohub,2013-02-20 17:57:00,
2013-02-20 13:02:00,35.6,14.4,29.70,SW,225,4.0,14.0,41,0.00,,,0.17,meteohub,2013-02-20 18:02:00,
2013-02-20 13:07:00,35.4,14.7,29.70,WSW,248,6.0,14.0,42,0.00,,,0.17,meteohub,2013-02-20 18:07:00,
2013-02-20 13:12:00,34.5,13.8,29.70,NW,315,4.0,14.0,42,0.00,,,0.17,meteohub,2013-02-20 18:12:00,
2013-02-20 13:17:00,34.5,13.8,29.70,NNW,338,3.0,11.0,42,0.00,,,0.17,meteohub,2013-02-20 18:17:00,
2013-02-20 13:22:00,34.2,13.5,29.70,West,270,4.0,11.0,42,0.00,,,0.17,meteohub,2013-02-20 18:22:00,
2013-02-20 13:27:00,34.3,13.6,29.70,WNW,292,2.0,8.0,42,0.00,,,0.17,meteohub,2013-02-20 18:27:00,
2013-02-20 13:32:00,34.0,13.3,29.70,WNW,292,4.0,8.0,42,0.00,,,0.17,meteohub,2013-02-20 18:32:00,
2013-02-20 13:37:00,34.0,12.7,29.70,NW,315,4.0,9.0,41,0.00,,,0.17,meteohub,2013-02-20 18:37:00,
2013-02-20 13:42:00,33.6,13.1,29.70,WNW,292,4.0,9.0,42,0.00,,,0.17,meteohub,2013-02-20 18:42:00,
2013-02-20 13:47:00,33.6,13.1,29.70,WSW,248,4.0,10.0,42,0.00,,,0.17,meteohub,2013-02-20 18:47:00,
2013-02-20 13:52:00,33.3,12.7,29.70,WSW,248,5.0,10.0,42,0.00,,,0.17,meteohub,2013-02-20 18:52:00,
2013-02-20 13:57:00,33.3,12.7,29.70,South,180,6.0,11.0,42,0.00,,,0.17,meteohub,2013-02-20 18:57:00,
2013-02-20 14:02:00,33.1,12.6,29.70,SW,225,3.0,11.0,42,0.00,,,0.17,meteohub,2013-02-20 19:02:00,
2013-02-20 14:07:00,33.3,12.7,29.70,WNW,292,5.0,11.0,42,0.00,,,0.17,meteohub,2013-02-20 19:07:00,
2013-02-20 14:12:00,33.3,12.7,29.70,WSW,248,8.0,15.0,42,0.00,,,0.17,meteohub,2013-02-20 19:12:00,
2013-02-20 14:17:00,32.9,11.8,29.73,WSW,248,8.0,15.0,41,0.00,,,0.17,meteohub,2013-02-20 19:17:00,
2013-02-20 14:22:00,32.9,12.4,29.73,NNW,338,3.0,14.0,42,0.00,,,0.17,meteohub,2013-02-20 19:22:00,
2013-02-20 14:27:00,32.9,12.4,29.73,WNW,292,4.0,14.0,42,0.00,,,0.17,meteohub,2013-02-20 19:27:00,
2013-02-20 14:32:00,32.7,12.2,29.73,SW,225,2.0,9.0,42,0.00,,,0.17,meteohub,2013-02-20 19:32:00,
2013-02-20 14:37:00,32.7,12.2,29.73,WSW,248,6.0,7.0,42,0.00,,,0.17,meteohub,2013-02-20 19:37:00,
2013-02-20 14:42:00,32.5,11.5,29.73,NW,315,5.0,10.0,41,0.00,,,0.17,meteohub,2013-02-20 19:42:00,
2013-02-20 14:47:00,32.5,11.5,29.73,NW,315,4.0,10.0,41,0.00,,,0.17,meteohub,2013-02-20 19:47:00,
2013-02-20 14:52:00,32.2,11.1,29.73,WNW,292,5.0,10.0,41,0.00,,,0.17,meteohub,2013-02-20 19:52:00,
2013-02-20 14:57:00,32.4,11.3,29.73,West,270,4.0,9.0,41,0.00,,,0.17,meteohub,2013-02-20 19:57:00,
2013-02-20 15:02:00,32.4,11.3,29.73,West,270,4.0,9.0,41,0.00,,,0.17,meteohub,2013-02-20 20:02:00,
2013-02-20 15:07:00,32.4,11.3,29.73,West,270,11.0,11.0,41,0.00,,,0.17,meteohub,2013-02-20 20:07:00,
2013-02-20 15:12:00,32.2,11.1,29.73,West,270,4.0,11.0,41,0.00,,,0.17,meteohub,2013-02-20 20:12:00,
2013-02-20 15:17:00,31.8,10.8,29.73,SW,225,6.0,11.0,41,0.00,,,0.17,meteohub,2013-02-20 20:17:00,
2013-02-20 15:22:00,31.8,10.8,29.73,WSW,248,4.0,11.0,41,0.00,,,0.17,meteohub,2013-02-20 20:22:00,
2013-02-20 15:27:00,31.8,10.8,29.73,SW,225,6.0,10.0,41,0.00,,,0.17,meteohub,2013-02-20 20:27:00,
2013-02-20 15:32:00,31.6,10.6,29.73,West,270,6.0,11.0,41,0.00,,,0.17,meteohub,2013-02-20 20:32:00,
2013-02-20 15:37:00,31.6,10.6,29.73,WNW,292,5.0,13.0,41,0.00,,,0.17,meteohub,2013-02-20 20:37:00,
2013-02-20 15:42:00,31.5,10.6,29.73,WNW,292,6.0,13.0,41,0.00,,,0.17,meteohub,2013-02-20 20:42:00,
2013-02-20 15:47:00,31.5,10.6,29.73,WSW,248,12.0,13.0,41,0.00,,,0.17,meteohub,2013-02-20 20:47:00,
2013-02-20 15:52:00,31.5,10.6,29.73,West,270,9.0,12.0,41,0.00,,,0.17,meteohub,2013-02-20 20:52:00,
2013-02-20 15:57:00,31.1,10.2,29.73,West,270,3.0,12.0,41,0.00,,,0.17,meteohub,2013-02-20 20:57:00,
2013-02-20 16:02:00,31.1,10.2,29.73,WNW,292,5.0,12.0,41,0.00,,,0.17,meteohub,2013-02-20 21:02:00,
2013-02-20 16:07:00,31.1,10.2,29.73,NW,315,4.0,11.0,41,0.00,,,0.17,meteohub,2013-02-20 21:07:00,
2013-02-20 16:12:00,31.1,10.2,29.73,NNW,338,3.0,11.0,41,0.00,,,0.17,meteohub,2013-02-20 21:12:00,
2013-02-20 16:17:00,31.1,10.2,29.76,South,180,4.0,11.0,41,0.00,,,0.17,meteohub,2013-02-20 21:17:00,
2013-02-20 16:22:00,30.9,10.0,29.76,SW,225,7.0,11.0,41,0.00,,,0.17,meteohub,2013-02-20 21:22:00,
2013-02-20 16:27:00,30.6,9.7,29.76,NW,315,4.0,12.0,41,0.00,,,0.17,meteohub,2013-02-20 21:27:00,
2013-02-20 16:32:00,30.2,9.3,29.76,WNW,292,5.0,12.0,41,0.00,,,0.17,meteohub,2013-02-20 21:32:00,
2013-02-20 16:37:00,29.7,9.0,29.76,SW,225,3.0,12.0,41,0.00,,,0.17,meteohub,2013-02-20 21:37:00,
2013-02-20 16:42:00,29.5,8.8,29.76,WSW,248,10.0,10.0,41,0.00,,,0.17,meteohub,2013-02-20 21:42:00,
2013-02-20 16:47:00,29.3,8.6,29.76,SSW,202,11.0,11.0,41,0.00,,,0.17,meteohub,2013-02-20 21:47:00,
2013-02-20 16:52:00,29.1,8.4,29.76,NNW,338,3.0,11.0,41,0.00,,,0.17,meteohub,2013-02-20 21:52:00,
2013-02-20 16:57:00,28.9,8.2,29.76,WNW,292,4.0,11.0,41,0.00,,,0.17,meteohub,2013-02-20 21:57:00,
2013-02-20 17:02:00,28.6,8.4,29.76,WSW,248,6.0,11.0,42,0.00,,,0.17,meteohub,2013-02-20 22:02:00,
2013-02-20 17:07:00,28.6,8.4,29.76,NNW,338,3.0,9.0,42,0.00,,,0.17,meteohub,2013-02-20 22:07:00,
2013-02-20 17:12:00,28.4,8.2,29.76,North,0,3.0,9.0,42,0.00,,,0.17,meteohub,2013-02-20 22:12:00,
2013-02-20 17:17:00,28.2,8.1,29.76,North,0,6.0,9.0,42,0.00,,,0.17,meteohub,2013-02-20 22:17:00,
2013-02-20 17:22:00,28.2,8.1,29.76,WNW,292,4.0,9.0,42,0.00,,,0.17,meteohub,2013-02-20 22:22:00,
2013-02-20 17:27:00,28.0,7.9,29.76,WNW,292,5.0,10.0,42,0.00,,,0.17,meteohub,2013-02-20 22:27:00,
2013-02-20 17:32:00,27.9,7.7,29.73,West,270,4.0,10.0,42,0.00,,,0.17,meteohub,2013-02-20 22:32:00,
2013-02-20 17:37:00,27.7,7.7,29.73,WSW,248,6.0,8.0,42,0.00,,,0.17,meteohub,2013-02-20 22:37:00,
2013-02-20 17:42:00,27.7,7.7,29.73,WNW,292,4.0,9.0,42,0.00,,,0.17,meteohub,2013-02-20 22:42:00,
2013-02-20 17:52:00,27.5,7.5,29.76,WNW,292,3.0,11.0,42,0.00,,,0.17,meteohub,2013-02-20 22:52:00,
2013-02-20 17:57:00,27.3,7.3,29.76,WNW,292,5.0,11.0,42,0.00,,,0.17,meteohub,2013-02-20 22:57:00,
2013-02-20 18:02:00,27.1,7.2,29.76,WSW,248,4.0,9.0,42,0.00,,,0.17,meteohub,2013-02-20 23:02:00,
2013-02-20 18:07:00,27.1,7.2,29.76,ENE,68,5.0,9.0,42,0.00,,,0.17,meteohub,2013-02-20 23:07:00,
2013-02-20 18:12:00,27.1,7.2,29.76,WSW,248,4.0,9.0,42,0.00,,,0.17,meteohub,2013-02-20 23:12:00,
2013-02-20 18:17:00,27.0,7.0,29.76,SW,225,3.0,10.0,42,0.00,,,0.17,meteohub,2013-02-20 23:17:00,
2013-02-20 18:22:00,27.0,7.0,29.76,West,270,2.0,10.0,42,0.00,,,0.17,meteohub,2013-02-20 23:22:00,
2013-02-20 18:27:00,27.0,7.0,29.76,ENE,68,6.0,10.0,42,0.00,,,0.17,meteohub,2013-02-20 23:27:00,
2013-02-20 18:32:00,27.0,7.0,29.76,SW,225,0.0,6.0,42,0.00,,,0.17,meteohub,2013-02-20 23:32:00,
2013-02-20 18:37:00,26.8,6.8,29.76,WSW,248,6.0,6.0,42,0.00,,,0.17,meteohub,2013-02-20 23:37:00,
2013-02-20 18:47:00,26.6,7.2,29.76,WSW,248,3.0,9.0,43,0.00,,,0.17,meteohub,2013-02-20 23:47:00,
2013-02-20 18:52:00,26.6,7.2,29.76,NNW,338,2.0,9.0,43,0.00,,,0.17,meteohub,2013-02-20 23:52:00,
2013-02-20 18:57:00,26.6,7.2,29.76,West,270,4.0,7.0,43,0.00,,,0.17,meteohub,2013-02-20 23:57:00,
2013-02-20 19:02:00,26.6,7.2,29.79,WSW,248,5.0,6.0,43,0.00,,,0.17,meteohub,2013-02-21 00:02:00,
2013-02-20 19:07:00,26.4,7.0,29.79,West,270,4.0,7.0,43,0.00,,,0.00,meteohub,2013-02-21 00:07:00,
2013-02-20 19:17:00,26.4,7.5,29.79,SSW,202,4.0,6.0,44,0.00,,,0.00,meteohub,2013-02-21 00:17:00,
2013-02-20 19:22:00,26.4,7.5,29.79,NW,315,8.0,8.0,44,0.00,,,0.00,meteohub,2013-02-21 00:22:00,
2013-02-20 19:27:00,26.2,7.3,29.79,WSW,248,4.0,8.0,44,0.00,,,0.00,meteohub,2013-02-21 00:27:00,
2013-02-20 19:32:00,26.2,7.3,29.79,NW,315,4.0,8.0,44,0.00,,,0.00,meteohub,2013-02-21 00:32:00,
2013-02-20 19:37:00,26.2,7.3,29.79,NNW,338,1.0,8.0,44,0.00,,,0.00,meteohub,2013-02-21 00:37:00,
2013-02-20 19:42:00,26.2,7.3,29.79,WSW,248,4.0,6.0,44,0.00,,,0.00,meteohub,2013-02-21 00:42:00,
2013-02-20 19:47:00,26.2,7.3,29.79,WNW,292,7.0,7.0,44,0.00,,,0.00,meteohub,2013-02-21 00:47:00,
2013-02-20 19:52:00,26.2,7.3,29.79,WNW,292,4.0,6.0,44,0.00,,,0.00,meteohub,2013-02-21 00:52:00,
2013-02-20 19:57:00,26.4,7.5,29.79,SSW,202,3.0,7.0,44,0.00,,,0.00,meteohub,2013-02-21 00:57:00,
2013-02-20 20:02:00,26.4,7.5,29.82,WNW,292,4.0,7.0,44,0.00,,,0.00,meteohub,2013-02-21 01:02:00,
2013-02-20 20:07:00,26.4,8.1,29.82,WSW,248,5.0,6.0,45,0.00,,,0.00,meteohub,2013-02-21 01:07:00,
2013-02-20 20:12:00,26.2,7.9,29.82,WSW,248,4.0,10.0,45,0.00,,,0.00,meteohub,2013-02-21 01:12:00,
2013-02-20 20:17:00,26.2,7.9,29.82,North,0,4.0,15.0,45,0.00,,,0.00,meteohub,2013-02-21 01:17:00,
2013-02-20 20:22:00,26.2,7.9,29.82,NW,315,3.0,15.0,45,0.00,,,0.00,meteohub,2013-02-21 01:22:00,
2013-02-20 20:27:00,26.1,7.7,29.82,WSW,248,4.0,15.0,45,0.00,,,0.00,meteohub,2013-02-21 01:27:00,
2013-02-20 20:32:00,26.1,7.7,29.82,WNW,292,4.0,10.0,45,0.00,,,0.00,meteohub,2013-02-21 01:32:00,
2013-02-20 20:37:00,26.1,8.1,29.82,NNE,22,1.0,6.0,46,0.00,,,0.00,meteohub,2013-02-21 01:37:00,
2013-02-20 20:42:00,25.9,8.1,29.82,WNW,292,3.0,6.0,46,0.00,,,0.00,meteohub,2013-02-21 01:42:00,
2013-02-20 20:47:00,25.7,8.2,29.82,WSW,248,6.0,7.0,47,0.00,,,0.00,meteohub,2013-02-21 01:47:00,
2013-02-20 20:52:00,25.7,8.2,29.82,NNW,338,1.0,17.0,47,0.00,,,0.00,meteohub,2013-02-21 01:52:00,
2013-02-20 20:57:00,25.7,8.2,29.82,NW,315,3.0,17.0,47,0.00,,,0.00,meteohub,2013-02-21 01:57:00,
2013-02-20 21:02:00,25.5,8.1,29.82,West,270,6.0,17.0,47,0.00,,,0.00,meteohub,2013-02-21 02:02:00,
2013-02-20 21:07:00,25.5,8.1,29.82,WNW,292,3.0,10.0,47,0.00,,,0.00,meteohub,2013-02-21 02:07:00,
2013-02-20 21:12:00,25.3,7.9,29.82,SW,225,1.0,10.0,47,0.00,,,0.00,meteohub,2013-02-21 02:12:00,
2013-02-20 21:17:00,25.3,7.9,29.82,NW,315,3.0,7.0,47,0.00,,,0.00,meteohub,2013-02-21 02:17:00,
2013-02-20 21:22:00,25.3,7.9,29.82,NW,315,2.0,6.0,47,0.00,,,0.00,meteohub,2013-02-21 02:22:00,
2013-02-20 21:27:00,25.2,8.2,29.82,WNW,292,2.0,4.0,48,0.00,,,0.00,meteohub,2013-02-21 02:27:00,
2013-02-20 21:32:00,25.2,8.2,29.82,West,270,4.0,6.0,48,0.00,,,0.00,meteohub,2013-02-21 02:32:00,
2013-02-20 21:37:00,25.2,8.8,29.82,WNW,292,3.0,13.0,49,0.00,,,0.00,meteohub,2013-02-21 02:37:00,
2013-02-20 21:42:00,25.2,8.8,29.82,SW,225,3.0,13.0,49,0.00,,,0.00,meteohub,2013-02-21 02:42:00,
2013-02-20 21:47:00,25.2,8.8,29.82,WSW,248,4.0,13.0,49,0.00,,,0.00,meteohub,2013-02-21 02:47:00,
2013-02-20 21:52:00,25.0,8.6,29.82,West,270,3.0,8.0,49,0.00,,,0.00,meteohub,2013-02-21 02:52:00,
2013-02-20 21:57:00,25.2,8.8,29.82,WNW,292,4.0,6.0,49,0.00,,,0.00,meteohub,2013-02-21 02:57:00,
2013-02-20 22:02:00,25.0,8.6,29.82,SSW,202,3.0,6.0,49,0.00,,,0.00,meteohub,2013-02-21 03:02:00,
2013-02-20 22:07:00,25.0,9.0,29.82,West,270,1.0,6.0,50,0.00,,,0.00,meteohub,2013-02-21 03:07:00,
2013-02-20 22:12:00,25.0,9.0,29.82,NW,315,4.0,6.0,50,0.00,,,0.00,meteohub,2013-02-21 03:12:00,
2013-02-20 22:17:00,25.0,9.0,29.82,NNW,338,4.0,9.0,50,0.00,,,0.00,meteohub,2013-02-21 03:17:00,
2013-02-20 22:22:00,25.2,9.1,29.82,WNW,292,6.0,9.0,50,0.00,,,0.00,meteohub,2013-02-21 03:22:00,
2013-02-20 22:27:00,25.2,9.7,29.82,WSW,248,6.0,8.0,51,0.00,,,0.00,meteohub,2013-02-21 03:27:00,
2013-02-20 22:32:00,25.2,9.7,29.82,WSW,248,3.0,7.0,51,0.00,,,0.00,meteohub,2013-02-21 03:32:00,
2013-02-20 22:37:00,25.3,9.7,29.82,WSW,248,6.0,7.0,51,0.00,,,0.00,meteohub,2013-02-21 03:37:00,
2013-02-20 22:42:00,25.3,9.7,29.82,NNW,338,4.0,7.0,51,0.00,,,0.00,meteohub,2013-02-21 03:42:00,
2013-02-20 22:47:00,25.3,9.7,29.85,WSW,248,6.0,6.0,51,0.00,,,0.00,meteohub,2013-02-21 03:47:00,
2013-02-20 22:52:00,25.3,9.7,29.85,SSW,202,2.0,6.0,51,0.00,,,0.00,meteohub,2013-02-21 03:52:00,
2013-02-20 22:57:00,25.3,10.2,29.85,WSW,248,3.0,7.0,52,0.00,,,0.00,meteohub,2013-02-21 03:57:00,
2013-02-20 23:02:00,25.5,10.4,29.85,WNW,292,5.0,8.0,52,0.00,,,0.00,meteohub,2013-02-21 04:02:00,
2013-02-20 23:07:00,25.5,10.4,29.85,NNW,338,3.0,8.0,52,0.00,,,0.00,meteohub,2013-02-21 04:07:00,
2013-02-20 23:17:00,25.5,10.4,29.85,NW,315,3.0,8.0,52,0.00,,,0.00,meteohub,2013-02-21 04:17:00,
2013-02-20 23:22:00,25.7,10.6,29.85,West,270,4.0,8.0,52,0.00,,,0.00,meteohub,2013-02-21 04:22:00,
2013-02-20 23:27:00,25.7,10.6,29.85,West,270,4.0,6.0,52,0.00,,,0.00,meteohub,2013-02-21 04:27:00,
2013-02-20 23:32:00,25.7,10.6,29.85,WSW,248,7.0,7.0,52,0.00,,,0.00,meteohub,2013-02-21 04:32:00,
2013-02-20 23:37:00,25.7,10.6,29.85,West,270,4.0,7.0,52,0.00,,,0.00,meteohub,2013-02-21 04:37:00,
2013-02-20 23:42:00,25.7,10.6,29.85,WNW,292,11.0,11.0,52,0.00,,,0.00,meteohub,2013-02-21 04:42:00,
2013-02-20 23:47:00,25.7,10.6,29.85,NW,315,3.0,11.0,52,0.00,,,0.00,meteohub,2013-02-21 04:47:00,
2013-02-20 23:52:00,25.7,10.6,29.85,WNW,292,3.0,11.0,52,0.00,,,0.00,meteohub,2013-02-21 04:52:00,
2013-02-20 23:57:00,25.7,10.6,29.85,West,270,5.0,11.0,52,0.00,,,0.00,meteohub,2013-02-21 04:57:00,